Location: Liscomb Game Sanctuary
(45.1633°N, 62.5575°W)
Time: 15:48:42
(UTC-04:00)

Amateur Radio Satellites - All Passes

Search period start: 21 January 2017 15:18
Search period end: 22 January 2017 15:18
Location: Liscomb Game Sanctuary, 45.1633°N, 62.5575°W

Satellite Date Start Highest point End Downlink Frequencies (MHz)
Time Altitude Azimuth
YUBILEINY 21 Jan 15:19:58 15:28:27 50° 287° (WNW) 15:37:02 435.215
SO-50 21 Jan 15:23:56 15:28:04 34° 44° (NE) 15:32:09 436.795
ITAMSAT 1 21 Jan 15:33:58 15:38:08 24° 266° (W) 15:42:20 435.822/435.867
BEESAT 2 21 Jan 15:42:16 15:44:18 14° 110° (ESE) 15:46:21 435.950
ITUPSAT 1 21 Jan 15:44:46 15:49:21 45° 291° (WNW) 15:53:55 437.325
STARS 21 Jan 15:51:28 15:52:44 11° 89° (E) 15:53:59 437.465
Cosmos 2504 21 Jan 15:52:10 16:00:33 53° 285° (WNW) 16:08:26 435.465 / 435.565
CUSAT 1 21 Jan 15:52:52 15:58:07 20° 281° (W) 16:03:09 437.405
Cubesat XI-IV 21 Jan 15:57:54 16:00:36 14° 56° (NE) 16:03:19 437.490
AUBIESAT-1 21 Jan 15:58:48 16:01:06 17° 99° (E) 16:03:22 437.475
AO-85 21 Jan 16:01:10 16:03:30 14° 326° (NW) 16:05:46 145.980
NOAA 15 21 Jan 16:02:12 16:05:24 16° 57° (ENE) 16:08:37 137.62
MOZHAYETS 4 21 Jan 16:03:53 16:08:33 80° 285° (WNW) 16:13:11
O/OREOS (USA 219) 21 Jan 16:10:56 16:15:24 64° 249° (WSW) 16:19:52 437.305
NOAA 18 21 Jan 16:12:24 16:14:22 12° 53° (NE) 16:16:20 137.9125
BEESAT 21 Jan 16:19:19 16:23:01 23° 297° (WNW) 16:26:42 436.000
SWISSCUBE 21 Jan 16:21:16 16:24:43 20° 298° (WNW) 16:28:10 437.505
GOMX 1 21 Jan 16:28:07 16:33:17 50° 71° (ENE) 16:38:12 467.674
BRITE-PL 21 Jan 16:29:27 16:35:09 75° 257° (WSW) 16:40:47 437.365/2234.400
BEESAT 3 21 Jan 16:30:17 16:34:11 84° 305° (NW) 16:38:09 437.485
KKS-1 21 Jan 16:35:18 16:39:44 70° 103° (ESE) 16:44:08 437.445
HORYU 2 21 Jan 16:44:43 16:49:07 82° 75° (ENE) 16:53:34 437.375
CUTE-I 21 Jan 16:51:31 16:56:23 38° 67° (ENE) 17:01:17 437.470
CUBESAT XI-V 21 Jan 16:52:42 16:57:19 54° 100° (E) 17:01:52 437.345
DANDE 21 Jan 16:53:19 16:58:37 20° 278° (W) 17:04:08 436.750
LilacSat-2 21 Jan 16:54:10 16:57:33 32° 70° (ENE) 17:00:59 437.200
AO-7 21 Jan 16:54:23 16:59:14 16° 273° (W) 17:04:07 29.400- 29.500
M-CUBED/EXP-1 PRIME 21 Jan 16:56:44 17:00:05 62° 291° (WNW) 17:03:18 437.505
DOVE 4 21 Jan 17:01:46 17:06:24 42° 71° (ENE) 17:10:47 437.250
SO-50 21 Jan 17:04:27 17:08:32 34° 243° (WSW) 17:12:33 436.795
HO-68 21 Jan 17:15:15 17:20:36 23° 54° (NE) 17:25:55 435.675
BEESAT 2 21 Jan 17:17:40 17:21:35 62° 308° (NW) 17:25:34 435.950
STARS 21 Jan 17:25:14 17:29:36 76° 287° (WNW) 17:33:58 437.465
YUBILEINY 21 Jan 17:25:38 17:27:56 11° 312° (NW) 17:30:15 435.215
AUBIESAT-1 21 Jan 17:32:41 17:35:38 28° 297° (WNW) 17:38:30 437.475
Cubesat XI-IV 21 Jan 17:34:35 17:39:54 87° 71° (ENE) 17:45:15 437.490
NOAA 15 21 Jan 17:39:12 17:44:30 82° 256° (WSW) 17:49:52 137.62
MOZHAYETS 4 21 Jan 17:43:51 17:44:54 11° 303° (WNW) 17:45:58
CUTE 1.7 + AOD 2 21 Jan 17:46:05 17:48:40 16° 62° (ENE) 17:51:16 437.475
NOAA 18 21 Jan 17:48:36 17:54:04 69° 71° (ENE) 17:59:32 137.9125
Cosmos 2504 21 Jan 17:53:44 17:56:00 11° 308° (NW) 17:58:15 435.465 / 435.565
GOMX 1 21 Jan 18:07:18 18:11:32 23° 267° (W) 18:15:39 467.674
BEESAT 3 21 Jan 18:10:19 18:12:26 14° 326° (NW) 18:14:34 437.485
Cosmos 2499 21 Jan 18:11:12 18:17:09 23° 81° (E) 18:22:50 435.465 / 435.565
BRITE-PL 21 Jan 18:12:51 18:14:26 11° 275° (W) 18:16:01 437.365/2234.400
KKS-1 21 Jan 18:13:25 18:15:45 14° 300° (WNW) 18:18:04 437.445
CANX-2 21 Jan 18:14:05 18:17:55 34° 69° (ENE) 18:21:47 2200.000
GONETS M04 21 Jan 18:14:06 18:19:50 20° 76° (ENE) 18:25:36
CINEMA 3 21 Jan 18:21:45 18:26:05 62° 74° (ENE) 18:30:17 145.822/145.860
SEEDS 21 Jan 18:22:56 18:26:24 25° 67° (ENE) 18:29:53 437.485
HORYU 2 21 Jan 18:25:30 18:26:15 10° 272° (W) 18:27:01 437.375
COMPASS 1 21 Jan 18:26:31 18:29:27 19° 64° (ENE) 18:32:25 437.405
LilacSat-2 21 Jan 18:29:11 18:31:56 19° 267° (W) 18:34:44 437.200
CUBESAT XI-V 21 Jan 18:30:59 18:34:18 19° 297° (WNW) 18:37:34 437.345
CUTE-I 21 Jan 18:31:51 18:36:30 31° 265° (W) 18:41:11 437.470
AAUSAT CUBESAT 2 21 Jan 18:36:32 18:39:26 19° 64° (ENE) 18:42:21 437.432
DOVE 4 21 Jan 18:40:15 18:44:13 24° 266° (W) 18:48:01 437.250
Oscar 11 21 Jan 18:50:24 18:51:49 11° 59° (ENE) 18:53:14 145.826/435.025
BEESAT 2 21 Jan 18:58:38 19:00:11 12° 329° (NNW) 19:01:45 435.950
HO-68 21 Jan 19:00:17 19:07:30 84° 254° (WSW) 19:14:46 435.675
STRAND 1 21 Jan 19:07:47 19:12:36 39° 98° (E) 19:17:25 437.568
CUBEBUG 2 21 Jan 19:08:09 19:12:06 45° 72° (ENE) 19:16:05 437.445
Cubesat XI-IV 21 Jan 19:18:16 19:20:40 13° 272° (W) 19:23:04 437.490
CUTE 1.7 + AOD 2 21 Jan 19:19:53 19:24:04 56° 260° (W) 19:28:18 437.475
NOAA 15 21 Jan 19:23:48 19:25:06 11° 274° (W) 19:26:24 137.62
FUNcube-1 21 Jan 19:26:15 19:29:40 26° 67° (ENE) 19:33:07 145.935
AIST 2 21 Jan 19:26:32 19:30:36 64° 121° (ESE) 19:34:45 435.215
NOAA 18 21 Jan 19:31:35 19:35:13 18° 269° (W) 19:38:52 137.9125
UWE-3 21 Jan 19:33:42 19:37:43 54° 73° (ENE) 19:41:47 435.000/436.395/437.385
DELFI C3 21 Jan 19:43:12 19:45:03 13° 62° (ENE) 19:46:54 145.870
ZACube-1 21 Jan 19:49:28 19:53:26 48° 72° (ENE) 19:57:28 437.345
CANX-2 21 Jan 19:50:22 19:53:49 24° 266° (W) 19:57:18 2200.000
SEEDS 21 Jan 19:58:09 20:01:58 32° 264° (W) 20:05:48 437.485
COMPASS 1 21 Jan 20:00:40 20:04:41 44° 262° (W) 20:08:45 437.405
Cosmos 2499 21 Jan 20:01:06 20:09:31 79° 280° (W) 20:17:18 435.465 / 435.565
CINEMA 3 21 Jan 20:01:33 20:03:36 13° 270° (W) 20:05:38 145.822/145.860
GONETS M04 21 Jan 20:06:39 20:15:23 90° 100° (E) 20:24:13
AAUSAT CUBESAT 2 21 Jan 20:10:34 20:14:35 44° 262° (W) 20:18:38 437.432
Oscar 11 21 Jan 20:22:57 20:27:16 85° 258° (WSW) 20:31:39 145.826/435.025
CUBEBUG 2 21 Jan 20:46:20 20:48:59 16° 269° (W) 20:51:39 437.445
STRAND 1 21 Jan 20:47:15 20:51:38 29° 295° (WNW) 20:56:01 437.568
HO-68 21 Jan 20:52:04 20:56:15 16° 273° (W) 21:00:27 435.675
FUNcube-1 21 Jan 21:02:12 21:05:49 29° 265° (W) 21:09:30 145.935
BY70-1 21 Jan 21:06:17 21:06:49 10° 61° (ENE) 21:07:21 436.1900
AIST 2 21 Jan 21:06:24 21:09:29 20° 321° (NW) 21:12:36 435.215
AO-85 21 Jan 21:07:31 21:10:43 23° 41° (NE) 21:13:51 145.980
UWE-3 21 Jan 21:12:24 21:14:33 14° 270° (W) 21:16:43 435.000/436.395/437.385
ANTELSAT 21 Jan 21:13:09 21:15:33 14° 90° (E) 21:17:57 437.575/2403.000
DELFI C3 21 Jan 21:15:21 21:19:20 64° 259° (W) 21:23:21 145.870
HUMSAT D 21 Jan 21:23:49 21:27:54 85° 79° (E) 21:32:06 437.325/437.525
ZACube-1 21 Jan 21:27:33 21:30:02 15° 270° (W) 21:32:32 437.345
PRISM 21 Jan 21:30:27 21:34:32 61° 101° (E) 21:38:35 437.425
JAS-2 21 Jan 21:44:51 21:49:49 19° 88° (E) 21:54:58 435.910
CUBEBUG 1 21 Jan 21:52:27 21:55:13 17° 62° (ENE) 21:57:58 437.445
ISS 21 Jan 21:54:17 21:57:20 39° 143° (SE) 22:00:25 145.825
Cosmos 2499 21 Jan 21:58:51 22:03:53 17° 300° (WNW) 22:08:45 435.465 / 435.565
GONETS M04 21 Jan 22:07:07 22:13:31 22° 300° (WNW) 22:20:00
AISAT 21 Jan 22:12:26 22:15:25 18° 62° (ENE) 22:18:25 437.250
UNISAT 6 21 Jan 22:19:39 22:24:06 68° 102° (ESE) 22:28:37 437.425
RS-15 21 Jan 22:29:35 22:40:06 40° 106° (ESE) 22:50:59 29.354- 29.394
TIGRISAT 21 Jan 22:32:33 22:37:00 85° 106° (ESE) 22:41:32 435.000
BY70-1 21 Jan 22:33:35 22:36:35 51° 260° (W) 22:39:48 436.1900
ESTCUBE 1 21 Jan 22:38:57 22:43:29 76° 75° (ENE) 22:48:03 437.505/2401.250
VELOX 1 21 Jan 22:44:29 22:48:29 34° 68° (ENE) 22:52:30 145.980
AO-85 21 Jan 22:47:34 22:51:16 41° 241° (WSW) 22:54:57 145.980
ANTELSAT 21 Jan 22:48:14 22:52:38 63° 286° (WNW) 22:57:07 437.575/2403.000
50 SAT 21 Jan 22:49:50 22:52:45 24° 68° (ENE) 22:55:41 437.505
PCSat 21 Jan 22:59:56 23:01:03 11° 101° (E) 23:02:09 145.827
SPROUT 21 Jan 23:02:16 23:06:09 36° 70° (ENE) 23:10:03 437.525
PRISM 21 Jan 23:07:12 23:09:20 14° 299° (WNW) 23:11:29 437.425
UKube-1 21 Jan 23:08:32 23:11:55 23° 64° (ENE) 23:15:18 .
BEESAT 3 21 Jan 23:08:34 23:11:14 17° 37° (NE) 23:13:53 437.485
DX 1 21 Jan 23:11:48 23:15:41 32° 68° (ENE) 23:19:35 434.975-435.025
CUBEBUG 1 21 Jan 23:26:43 23:31:04 57° 259° (W) 23:35:25 437.445
JAS-2 21 Jan 23:28:19 23:35:33 88° 106° (ESE) 23:43:21 435.910
QB50P1 21 Jan 23:29:25 23:33:21 37° 98° (E) 23:37:16 145.935-145.965
ISS 21 Jan 23:30:44 23:33:50 40° 341° (NNW) 23:36:56 145.825
YUBILEINY 21 Jan 23:31:20 23:37:56 23° 60° (ENE) 23:44:27 435.215
POLYITAN 1 21 Jan 23:34:00 23:38:02 41° 98° (E) 23:42:03 437.675
QB50P2 21 Jan 23:35:16 23:39:21 46° 99° (E) 23:43:26 145.880/145.840
AISAT 21 Jan 23:47:08 23:51:29 53° 260° (W) 23:55:51 437.250
Cosmos 2504 21 Jan 23:51:39 23:54:39 13° 54° (NE) 23:57:36 435.465 / 435.565
POPSAT HIP 1 21 Jan 23:56:18 00:00:32 71° 103° (ESE) 00:04:45 437.405
BEESAT 2 21 Jan 23:56:21 23:59:29 21° 40° (NE) 00:02:35 435.950
UNISAT 6 21 Jan 23:57:51 00:00:19 15° 299° (WNW) 00:02:47 437.425
DUCHIFAT 1 22 Jan 00:05:12 00:09:25 77° 104° (ESE) 00:13:36 145.980
TIGRISAT 22 Jan 00:11:24 00:13:03 12° 301° (WNW) 00:14:43 435.000
NANOSAT C BR1 22 Jan 00:11:34 00:15:47 83° 287° (WNW) 00:20:01 145.865
AIST 1 22 Jan 00:13:12 00:17:02 31° 74° (ENE) 00:20:49
SWISSCUBE 22 Jan 00:17:14 00:18:35 11° 56° (NE) 00:19:55 437.505
ESTCUBE 1 22 Jan 00:19:08 00:20:50 12° 272° (W) 00:22:32 437.505/2401.250
VELOX 1 22 Jan 00:21:15 00:24:59 26° 265° (W) 00:28:42 145.980
50 SAT 22 Jan 00:22:57 00:25:53 24° 265° (W) 00:28:51 437.505
TISAT 1 22 Jan 00:24:43 00:28:38 42° 71° (ENE) 00:32:35 437.305
Cosmos 2491 22 Jan 00:25:55 00:31:38 20° 76° (ENE) 00:37:22 435.465 / 435.565
BUGSAT 1 22 Jan 00:33:36 00:37:35 56° 101° (E) 00:41:35 437.445
PCSat 22 Jan 00:38:05 00:43:28 75° 119° (ESE) 00:48:54 145.827
SPROUT 22 Jan 00:38:51 00:42:11 22° 267° (W) 00:45:30 437.525
RS-15 22 Jan 00:39:52 00:51:49 72° 311° (NW) 01:04:16 29.354- 29.394
UKube-1 22 Jan 00:43:42 00:47:44 38° 262° (W) 00:51:47 .
BEESAT 3 22 Jan 00:45:19 00:49:19 75° 238° (WSW) 00:53:18 437.485
DX 1 22 Jan 00:48:12 00:51:53 26° 265° (W) 00:55:35 434.975-435.025
QB50P1 22 Jan 01:05:38 01:08:55 22° 295° (WNW) 01:12:11 145.935-145.965
ISS 22 Jan 01:08:06 01:10:51 25° 0° (N) 01:13:38 145.825
POLYITAN 1 22 Jan 01:10:27 01:13:33 20° 295° (WNW) 01:16:39 437.675
QB50P2 22 Jan 01:11:54 01:14:50 19° 296° (WNW) 01:17:46 145.880/145.840
JAS-2 22 Jan 01:14:36 01:19:49 23° 302° (WNW) 01:25:20 435.910
ITUPSAT 1 22 Jan 01:16:03 01:20:17 33° 67° (ENE) 01:24:32 437.325
Oscar 19 22 Jan 01:17:46 01:22:42 43° 98° (E) 01:27:35 437.125/150
YUBILEINY 22 Jan 01:27:09 01:36:02 89° 263° (W) 01:44:49 435.215
MOZHAYETS 4 22 Jan 01:32:41 01:35:22 16° 60° (ENE) 01:38:04
BEESAT 2 22 Jan 01:33:35 01:37:33 54° 239° (WSW) 01:41:29 435.950
POPSAT HIP 1 22 Jan 01:33:51 01:35:45 13° 300° (WNW) 01:37:39 437.405
CUSAT 1 22 Jan 01:34:14 01:36:59 14° 75° (ENE) 01:40:00 437.405
Cosmos 2504 22 Jan 01:42:25 01:49:49 66° 78° (ENE) 01:56:55 435.465 / 435.565
DUCHIFAT 1 22 Jan 01:42:56 01:44:29 12° 300° (WNW) 01:46:03 145.980
Gurwin Techsat 1B 22 Jan 01:44:29 01:49:31 42° 98° (E) 01:54:31 435.225
BEESAT 22 Jan 01:49:01 01:53:44 68° 73° (ENE) 01:58:29 436.000
SWISSCUBE 22 Jan 01:50:47 01:55:32 79° 74° (ENE) 02:00:20 437.505
AIST 1 22 Jan 01:51:04 01:54:28 23° 272° (W) 01:57:51
PHONESAT 2.4 22 Jan 01:52:39 01:54:07 15° 165° (SSE) 01:55:34 2401.200-2431.200
TISAT 1 22 Jan 02:01:32 02:04:27 18° 267° (W) 02:07:24 437.305
KKS-1 22 Jan 02:02:50 02:03:36 10° 57° (ENE) 02:04:21 437.445
ITAMSAT 1 22 Jan 02:05:52 02:08:23 13° 89° (E) 02:10:52 435.822/435.867
AIST 2 22 Jan 02:08:31 02:10:59 15° 34° (NE) 02:13:25 435.215
BUGSAT 1 22 Jan 02:10:19 02:12:31 14° 298° (WNW) 02:14:44 437.445
M-CUBED/EXP-1 PRIME 22 Jan 02:10:30 02:13:50 23° 62° (ENE) 02:16:59 437.505
Cosmos 2491 22 Jan 02:18:29 02:27:12 90° 101° (E) 02:36:00 435.465 / 435.565
PCSat 22 Jan 02:23:11 02:27:26 23° 320° (NW) 02:31:44 145.827
DANDE 22 Jan 02:42:15 02:43:00 10° 75° (ENE) 02:43:46 436.750
ISS 22 Jan 02:44:44 02:47:52 43° 21° (NNE) 02:51:00 145.825
AUBIESAT-1 22 Jan 02:45:03 02:48:59 40° 66° (ENE) 02:52:40 437.475
STARS 22 Jan 02:49:37 02:52:00 14° 60° (ENE) 02:54:22 437.465
ITUPSAT 1 22 Jan 02:53:55 02:58:06 30° 264° (W) 03:02:19 437.325
RS-15 22 Jan 02:56:11 03:07:00 34° 341° (NNW) 03:17:58 29.354- 29.394
AO-7 22 Jan 02:56:34 03:03:51 32° 95° (E) 03:11:04 29.400- 29.500
Oscar 19 22 Jan 02:57:30 03:01:49 27° 296° (WNW) 03:06:05 437.125/150
MOZHAYETS 4 22 Jan 03:07:27 03:11:59 67° 258° (WSW) 03:16:36
CUSAT 1 22 Jan 03:11:58 03:17:22 84° 97° (E) 03:24:21 437.405
Gurwin Techsat 1B 22 Jan 03:24:46 03:29:17 29° 296° (WNW) 03:33:49 435.225
PHONESAT 2.4 22 Jan 03:25:45 03:27:39 24° 181° (S) 03:29:33 2401.200-2431.200
YUBILEINY 22 Jan 03:25:46 03:31:31 20° 284° (WNW) 03:37:16 435.215
BEESAT 22 Jan 03:29:24 03:32:00 14° 270° (W) 03:34:35 436.000
SWISSCUBE 22 Jan 03:31:56 03:33:55 12° 272° (W) 03:35:54 437.505
KKS-1 22 Jan 03:34:57 03:39:24 82° 75° (ENE) 03:43:51 437.445
Cosmos 2504 22 Jan 03:36:54 03:42:28 24° 279° (W) 03:47:53 435.465 / 435.565
ITAMSAT 1 22 Jan 03:43:14 03:48:29 83° 286° (WNW) 03:53:42 435.822/435.867
M-CUBED/EXP-1 PRIME 22 Jan 03:44:05 03:48:08 38° 256° (WSW) 03:51:56 437.505
AIST 2 22 Jan 03:45:53 03:50:09 79° 53° (NE) 03:54:23 435.215
CUBESAT XI-V 22 Jan 03:57:32 04:02:11 65° 74° (ENE) 04:06:53 437.345
Cosmos 2491 22 Jan 04:18:59 04:25:21 22° 300° (WNW) 04:31:47 435.465 / 435.565
DANDE 22 Jan 04:20:10 04:24:15 81° 283° (WNW) 04:29:51 436.750
AUBIESAT-1 22 Jan 04:20:21 04:23:28 20° 260° (W) 04:26:27 437.475
GONETS M04 22 Jan 04:21:02 04:23:34 11° 48° (NE) 04:26:07
ISS 22 Jan 04:21:19 04:24:19 34° 219° (SW) 04:27:17 145.825
STARS 22 Jan 04:23:28 04:27:49 67° 258° (WSW) 04:32:11 437.465
BRITE-PL 22 Jan 04:33:25 04:37:43 30° 94° (E) 04:41:42 437.365/2234.400
HORYU 2 22 Jan 04:35:08 04:37:16 13° 90° (E) 04:39:25 437.375
AO-7 22 Jan 04:48:52 04:57:06 64° 295° (WNW) 05:05:17 29.400- 29.500
O/OREOS (USA 219) 22 Jan 04:49:43 04:50:45 11° 97° (E) 04:51:46 437.305
STRAND 1 22 Jan 04:51:11 04:52:21 11° 54° (NE) 04:53:30 437.568
CUSAT 1 22 Jan 04:56:23 05:00:31 19° 304° (NW) 05:05:17 437.405
PHONESAT 2.4 22 Jan 04:59:53 05:01:10 14° 197° (SSW) 05:02:26 2401.200-2431.200
CUTE-I 22 Jan 05:08:13 05:10:20 12° 87° (E) 05:12:28 437.470
RS-15 22 Jan 05:13:27 05:24:16 33° 16° (NNE) 05:34:57 29.354- 29.394
KKS-1 22 Jan 05:15:41 05:16:32 10° 272° (W) 05:17:24 437.445
ITAMSAT 1 22 Jan 05:24:44 05:27:08 13° 304° (NW) 05:29:32 435.822/435.867
AIST 2 22 Jan 05:26:20 05:28:00 12° 252° (WSW) 05:29:40 435.215
CUBESAT XI-V 22 Jan 05:37:22 05:40:01 15° 271° (W) 05:42:40 437.345
Cubesat XI-IV 22 Jan 05:50:03 05:54:42 29° 95° (E) 05:59:18 437.490
Cosmos 2499 22 Jan 05:50:21 05:57:01 40° 72° (ENE) 06:03:33 435.465 / 435.565
NOAA 15 22 Jan 05:52:34 05:57:19 32° 96° (E) 06:02:01 137.62
LilacSat-2 22 Jan 05:59:09 06:02:47 37° 98° (E) 06:06:24 437.200
GOMX 1 22 Jan 06:06:10 06:10:38 80° 284° (WNW) 06:14:50 467.674
DANDE 22 Jan 06:07:08 06:08:32 11° 309° (NW) 06:10:01 436.750
NOAA 18 22 Jan 06:09:09 06:13:31 24° 94° (E) 06:17:51 137.9125
HORYU 2 22 Jan 06:09:50 06:14:16 67° 287° (WNW) 06:18:42 437.375
BRITE-PL 22 Jan 06:11:53 06:16:11 31° 294° (WNW) 06:20:11 437.365/2234.400
GONETS M04 22 Jan 06:14:26 06:23:01 51° 74° (ENE) 06:31:33
CINEMA 3 22 Jan 06:15:58 06:17:27 12° 89° (E) 06:18:57 145.822/145.860
O/OREOS (USA 219) 22 Jan 06:24:57 06:29:26 81° 293° (WNW) 06:33:56 437.305
STRAND 1 22 Jan 06:25:32 06:30:35 69° 73° (ENE) 06:35:41 437.568
HO-68 22 Jan 06:27:30 06:31:50 17° 88° (E) 06:36:08 435.675
DOVE 4 22 Jan 06:35:53 06:40:06 83° 101° (E) 06:44:15 437.250
AO-7 22 Jan 06:43:18 06:48:18 18° 317° (NW) 06:53:19 29.400- 29.500
CUTE-I 22 Jan 06:45:45 06:51:08 89° 112° (ESE) 06:56:29 437.470
CUTE 1.7 + AOD 2 22 Jan 07:03:11 07:06:32 22° 93° (E) 07:09:51 437.475
SO-50 22 Jan 07:19:45 07:24:15 45° 119° (ESE) 07:28:42 436.795
RS-15 22 Jan 07:27:24 07:39:47 65° 46° (NE) 07:51:42 29.354- 29.394
Cubesat XI-IV 22 Jan 07:29:54 07:34:51 41° 293° (WNW) 07:39:49 437.490
CANX-2 22 Jan 07:32:13 07:36:26 50° 99° (E) 07:40:37 2200.000
NOAA 15 22 Jan 07:32:16 07:37:07 37° 294° (WNW) 07:41:56 137.62
LilacSat-2 22 Jan 07:34:04 07:36:49 19° 294° (WNW) 07:39:33 437.200
SEEDS 22 Jan 07:39:30 07:43:25 35° 97° (E) 07:47:18 437.485
PCSat 22 Jan 07:41:18 07:45:16 20° 38° (NE) 07:49:14 145.827
COMPASS 1 22 Jan 07:41:33 07:45:02 24° 94° (E) 07:48:28 437.405
Cosmos 2499 22 Jan 07:43:37 07:50:05 39° 273° (W) 07:56:30 435.465 / 435.565
NOAA 18 22 Jan 07:49:11 07:54:28 51° 291° (WNW) 07:59:43 137.9125
CINEMA 3 22 Jan 07:50:52 07:55:02 68° 286° (WNW) 07:59:18 145.822/145.860
AAUSAT CUBESAT 2 22 Jan 07:50:55 07:54:19 24° 94° (E) 07:57:43 437.432
TIGRISAT 22 Jan 08:00:22 08:01:20 11° 58° (ENE) 08:02:19 435.000
STRAND 1 22 Jan 08:07:14 08:10:16 16° 270° (W) 08:13:20 437.568
O/OREOS (USA 219) 22 Jan 08:07:51 08:09:36 12° 314° (NW) 08:11:23 437.305
Oscar 11 22 Jan 08:09:16 08:11:55 16° 90° (E) 08:14:33 145.826/435.025
GONETS M04 22 Jan 08:11:39 08:19:36 39° 275° (W) 08:27:33
HO-68 22 Jan 08:13:19 08:20:33 86° 107° (ESE) 08:27:44 435.675
ANTELSAT 22 Jan 08:14:18 08:16:52 16° 62° (ENE) 08:19:27 437.575/2403.000
DOVE 4 22 Jan 08:16:18 08:17:09 11° 301° (WNW) 08:17:59 437.250
PRISM 22 Jan 08:21:15 08:25:20 57° 73° (ENE) 08:29:27 437.425
CUTE-I 22 Jan 08:27:30 08:30:26 15° 303° (WNW) 08:33:22 437.470
CUBEBUG 2 22 Jan 08:32:33 08:36:55 82° 103° (ESE) 08:41:24 437.445
CUTE 1.7 + AOD 2 22 Jan 08:38:30 08:42:29 37° 290° (WNW) 08:46:26 437.475
FUNcube-1 22 Jan 08:47:03 08:51:15 42° 98° (E) 08:55:30 145.935
DELFI C3 22 Jan 08:51:54 08:54:03 14° 90° (E) 08:56:10 145.870
UWE-3 22 Jan 08:56:52 09:01:16 86° 284° (WNW) 09:05:46 435.000/436.395/437.385
SO-50 22 Jan 09:00:47 09:04:53 29° 318° (NW) 09:08:57 436.795
HUMSAT D 22 Jan 09:06:45 09:08:35 12° 89° (E) 09:10:23 437.325/437.525
CANX-2 22 Jan 09:09:03 09:11:54 18° 297° (WNW) 09:14:46 2200.000
ZACube-1 22 Jan 09:11:10 09:15:36 82° 104° (ESE) 09:20:05 437.345
SEEDS 22 Jan 09:15:32 09:18:56 23° 294° (WNW) 09:22:18 437.485
COMPASS 1 22 Jan 09:16:51 09:20:36 32° 291° (WNW) 09:24:19 437.405
UNISAT 6 22 Jan 09:20:23 09:24:37 74° 75° (ENE) 09:28:53 437.425
PCSat 22 Jan 09:23:58 09:29:27 90° 243° (WSW) 09:34:53 145.827
AAUSAT CUBESAT 2 22 Jan 09:26:05 09:29:50 32° 291° (WNW) 09:33:33 437.432
TIGRISAT 22 Jan 09:33:06 09:37:21 87° 257° (WSW) 09:41:38 435.000
NANOSAT C BR1 22 Jan 09:33:33 09:34:20 10° 59° (ENE) 09:35:07 145.865
RS-15 22 Jan 09:40:33 09:51:52 45° 251° (WSW) 10:02:47 29.354- 29.394
JAS-2 22 Jan 09:43:36 09:48:46 46° 67° (ENE) 09:54:30 435.910
Oscar 11 22 Jan 09:44:06 09:48:23 54° 287° (WNW) 09:52:37 145.826/435.025
ANTELSAT 22 Jan 09:48:59 09:53:09 55° 259° (W) 09:57:22 437.575/2403.000
PRISM 22 Jan 09:58:50 10:01:00 14° 269° (W) 10:03:09 437.425
HO-68 22 Jan 10:02:13 10:07:26 22° 307° (NW) 10:12:39 435.675
CUBEBUG 2 22 Jan 10:11:20 10:12:56 12° 300° (WNW) 10:14:35 437.445
QB50P1 22 Jan 10:23:38 10:27:27 35° 69° (ENE) 10:31:18 145.935-145.965
FUNcube-1 22 Jan 10:23:54 10:27:14 21° 295° (WNW) 10:30:36 145.935
DELFI C3 22 Jan 10:25:16 10:29:10 50° 287° (WNW) 10:33:00 145.870
POLYITAN 1 22 Jan 10:28:21 10:32:15 40° 70° (ENE) 10:36:12 437.675
QB50P2 22 Jan 10:29:35 10:33:34 44° 71° (ENE) 10:37:35 145.880/145.840
ESTCUBE 1 22 Jan 10:30:55 10:33:17 14° 89° (E) 10:35:38 437.505/2401.250
Cosmos 2491 22 Jan 10:33:02 10:35:25 11° 48° (NE) 10:37:49 435.465 / 435.565
UWE-3 22 Jan 10:36:09 10:37:03 11° 301° (WNW) 10:37:58 435.000/436.395/437.385
HUMSAT D 22 Jan 10:40:21 10:44:37 67° 285° (WNW) 10:48:52 437.325/437.525
ZACube-1 22 Jan 10:49:32 10:51:16 12° 300° (WNW) 10:53:00 437.345
POPSAT HIP 1 22 Jan 10:50:22 10:54:31 68° 74° (ENE) 10:58:42 437.405
DUCHIFAT 1 22 Jan 10:58:35 11:02:44 72° 74° (ENE) 11:06:53 145.980
UNISAT 6 22 Jan 11:00:54 11:01:52 11° 272° (W) 11:02:51 437.425
Oscar 19 22 Jan 11:01:05 11:03:08 12° 55° (NE) 11:05:12 437.125/150
NANOSAT C BR1 22 Jan 11:05:12 11:09:22 88° 248° (WSW) 11:13:35 145.865
BY70-1 22 Jan 11:06:03 11:09:17 58° 100° (E) 11:12:19 436.1900
PCSat 22 Jan 11:09:24 11:12:02 14° 257° (WSW) 11:14:38 145.827
CUBEBUG 1 22 Jan 11:13:44 11:17:06 22° 93° (E) 11:20:27 437.445
BUGSAT 1 22 Jan 11:24:59 11:28:55 50° 72° (ENE) 11:32:49 437.445
JAS-2 22 Jan 11:29:39 11:34:10 27° 269° (W) 11:39:07 435.910
Gurwin Techsat 1B 22 Jan 11:31:20 11:33:42 13° 55° (NE) 11:36:04 435.225
AISAT 22 Jan 11:35:29 11:39:04 24° 94° (E) 11:42:37 437.250
50 SAT 22 Jan 11:46:18 11:48:57 19° 94° (E) 11:51:35 437.505
QB50P1 22 Jan 12:00:04 12:03:19 22° 266° (W) 12:06:36 145.935-145.965
CUSAT 1 22 Jan 12:01:50 12:07:10 19° 56° (NE) 12:12:20 437.405
POLYITAN 1 22 Jan 12:05:11 12:08:13 19° 267° (W) 12:11:16 437.675
ESTCUBE 1 22 Jan 12:06:01 12:10:32 65° 286° (WNW) 12:15:00 437.505/2401.250
QB50P2 22 Jan 12:06:44 12:09:35 18° 268° (W) 12:12:27 145.880/145.840
VELOX 1 22 Jan 12:08:16 12:12:33 49° 100° (E) 12:16:47 145.980
AO-7 22 Jan 12:10:21 12:14:31 15° 40° (NE) 12:18:40 29.400- 29.500
SPROUT 22 Jan 12:21:16 12:25:27 52° 100° (E) 12:29:36 437.525
Cosmos 2491 22 Jan 12:26:21 12:34:53 51° 74° (ENE) 12:43:23 435.465 / 435.565
UKube-1 22 Jan 12:28:34 12:32:19 28° 96° (E) 12:36:03 .
POPSAT HIP 1 22 Jan 12:29:17 12:30:46 12° 271° (W) 12:32:14 437.405
DX 1 22 Jan 12:33:26 12:37:35 43° 99° (E) 12:41:42 434.975-435.025
Oscar 19 22 Jan 12:36:24 12:41:35 77° 74° (ENE) 12:46:49 437.125/150
YUBILEINY 22 Jan 12:36:42 12:43:00 23° 78° (ENE) 12:49:18 435.215
DUCHIFAT 1 22 Jan 12:37:53 12:38:54 11° 272° (W) 12:39:54 145.980
AIST 1 22 Jan 12:45:33 12:48:25 17° 86° (E) 12:51:16
CUBEBUG 1 22 Jan 12:49:30 12:53:30 37° 291° (WNW) 12:57:29 437.445
BUGSAT 1 22 Jan 13:02:19 13:04:34 14° 269° (W) 13:06:49 437.445
AO-85 22 Jan 13:03:11 13:07:27 35° 118° (ESE) 13:11:27 145.980
Gurwin Techsat 1B 22 Jan 13:07:29 13:12:48 80° 73° (ENE) 13:18:08 435.225
AISAT 22 Jan 13:11:36 13:15:36 35° 292° (WNW) 13:19:34 437.250
DANDE 22 Jan 13:11:40 13:17:39 23° 62° (ENE) 13:23:59 436.750
50 SAT 22 Jan 13:19:06 13:22:11 28° 291° (WNW) 13:25:15 437.505
ITAMSAT 1 22 Jan 13:25:04 13:29:20 27° 63° (ENE) 13:33:37 435.822/435.867
TISAT 1 22 Jan 13:41:35 13:45:43 56° 101° (E) 13:49:48 437.305
CUSAT 1 22 Jan 13:42:29 13:50:32 75° 77° (ENE) 13:57:54 437.405
VELOX 1 22 Jan 13:45:36 13:48:39 19° 297° (WNW) 13:51:41 145.980
BEESAT 22 Jan 13:48:25 13:51:06 15° 90° (E) 13:53:46 436.000
SWISSCUBE 22 Jan 13:49:55 13:53:05 17° 91° (E) 13:56:12 437.505
AO-7 22 Jan 13:57:25 14:05:26 53° 62° (ENE) 14:13:29 29.400- 29.500
SPROUT 22 Jan 13:58:15 14:00:58 17° 297° (WNW) 14:03:41 437.525
UKube-1 22 Jan 14:04:35 14:08:18 29° 293° (WNW) 14:12:01 .
SO-50 22 Jan 14:09:39 14:12:20 15° 31° (NNE) 14:14:59 436.795
DX 1 22 Jan 14:10:18 14:13:29 20° 297° (WNW) 14:16:39 434.975-435.025
Oscar 19 22 Jan 14:18:42 14:21:30 15° 271° (W) 14:24:19 437.125/150
AIST 1 22 Jan 14:21:27 14:25:38 45° 283° (WNW) 14:29:49
Cosmos 2504 22 Jan 14:21:48 14:30:05 55° 91° (E) 14:37:53 435.465 / 435.565
Cosmos 2491 22 Jan 14:23:36 14:31:29 39° 275° (W) 14:39:25 435.465 / 435.565
YUBILEINY 22 Jan 14:29:50 14:38:41 84° 278° (W) 14:47:36 435.215
AO-85 22 Jan 14:43:43 14:47:52 33° 314° (NW) 14:51:46 145.980
Gurwin Techsat 1B 22 Jan 14:50:34 14:53:22 14° 272° (W) 14:56:11 435.225
ITUPSAT 1 22 Jan 14:51:25 14:56:10 58° 101° (E) 15:00:55 437.325
DANDE 22 Jan 14:53:22 15:01:16 89° 79° (E) 15:09:41 436.750
O/OREOS (USA 219) 22 Jan 14:53:53 14:57:57 32° 57° (ENE) 15:02:00 437.305
MOZHAYETS 4 22 Jan 15:00:44 15:04:34 25° 94° (E) 15:08:22
ITAMSAT 1 22 Jan 15:03:40 15:08:35 44° 261° (W) 15:13:32 435.822/435.867
